| time (UTC) | temp F | wind direction | speed MPH | gust MPH | rain 1hr in | rain 24hr in | rain mn in | humidity % | barometer mb |
| 20260508080517 | 59 | 0 | 0.0 | 0.0 | 0.00 | 0.02 | 0.00 | 86 | 1015.5 |
| 20260508080018 | 59 | 0 | 0.0 | 0.0 | 0.00 | 0.02 | 0.00 | 85 | 1015.5 |
| 20260508075517 | 59 | 0 | 0.0 | 0.0 | 0.00 | 0.02 | 0.00 | 84 | 1015.8 |
| 20260508075018 | 59 | 0 | 0.0 | 0.0 | 0.00 | 0.02 | 0.00 | 84 | 1015.9 |
| 20260508074517 | 60 | 0 | 0.0 | 0.0 | 0.00 | 0.02 | 0.00 | 83 | 1015.9 |
| 20260508074017 | 60 | 0 | 0.0 | 0.0 | 0.00 | 0.02 | 0.00 | 82 | 1015.9 |
| 20260508073517 | 60 | 0 | 0.0 | 0.0 | 0.00 | 0.02 | 0.00 | 81 | 1015.9 |
| 20260508073018 | 60 | 0 | 0.0 | 0.0 | 0.00 | 0.02 | 0.00 | 81 | 1016.0 |
| 20260508072517 | 60 | 0 | 0.0 | 0.0 | 0.00 | 0.02 | 0.00 | 80 | 1016.0 |
| 20260508072017 | 61 | 336 | 0.0 | 1.0 | 0.00 | 0.02 | 0.00 | 80 | 1016.0 |
| 20260508071517 | 61 | 346 | 1.0 | 6.0 | 0.00 | 0.02 | 0.00 | 80 | 1016.1 |
| 20260508071017 | 61 | 37 | 0.0 | 4.0 | 0.00 | 0.02 | 0.00 | 80 | 1016.0 |
| 20260508070517 | 61 | 3 | 1.0 | 6.0 | 0.00 | 0.02 | 0.00 | 80 | 1016.0 |
| 20260508070017 | 61 | 35 | 1.0 | 6.0 | 0.00 | 0.02 | 0.00 | 80 | 1016.0 |
| 20260508065517 | 61 | 179 | 1.0 | 3.0 | 0.00 | 0.02 | 0.00 | 80 | 1015.9 |
| 20260508065017 | 61 | 40 | 0.0 | 5.0 | 0.00 | 0.02 | 0.00 | 81 | 1016.0 |
| 20260508064517 | 61 | 7 | 1.0 | 5.0 | 0.00 | 0.02 | 0.00 | 81 | 1016.1 |
| 20260508064017 | 60 | 333 | 1.0 | 6.0 | 0.00 | 0.02 | 0.00 | 82 | 1016.1 |
| 20260508063517 | 60 | 309 | 0.0 | 6.0 | 0.00 | 0.02 | 0.00 | 83 | 1016.1 |
| 20260508063017 | 60 | 20 | 0.0 | 4.0 | 0.00 | 0.02 | 0.00 | 84 | 1016.1 |
| 20260508062517 | 60 | 347 | 1.0 | 8.0 | 0.00 | 0.02 | 0.00 | 85 | 1016.1 |
| 20260508062017 | 60 | 360 | 0.0 | 7.0 | 0.00 | 0.02 | 0.00 | 86 | 1016.3 |
| 20260508061518 | 60 | 48 | 2.0 | 2.0 | 0.00 | 0.02 | 0.00 | 86 | 1016.2 |
| 20260508061017 | 59 | 51 | 0.0 | 4.0 | 0.00 | 0.02 | 0.00 | 86 | 1016.3 |
| 20260508060517 | 59 | 38 | 0.0 | 3.0 | 0.00 | 0.02 | 0.00 | 87 | 1016.1 |
| 20260508060018 | 60 | 41 | 1.0 | 4.0 | 0.00 | 0.02 | 0.00 | 86 | 1016.2 |
| 20260508055517 | 59 | 47 | 1.0 | 3.0 | 0.00 | 0.02 | 0.00 | 87 | 1016.3 |
| 20260508055017 | 59 | 40 | 0.0 | 5.0 | 0.00 | 0.02 | 0.00 | 87 | 1016.4 |
| 20260508054517 | 59 | 45 | 0.0 | 3.0 | 0.00 | 0.02 | 0.00 | 87 | 1016.5 |
| 20260508054017 | 60 | 42 | 0.0 | 3.0 | 0.00 | 0.02 | 0.00 | 87 | 1016.5 |
| 20260508053517 | 60 | 40 | 0.0 | 2.0 | 0.00 | 0.02 | 0.00 | 87 | 1016.8 |
| 20260508053017 | 60 | 55 | 2.0 | 1.0 | 0.00 | 0.02 | 0.00 | 87 | 1016.8 |
| 20260508052517 | 60 | 0 | 0.0 | 0.0 | 0.00 | 0.02 | 0.00 | 87 | 1016.8 |
| 20260508052017 | 60 | 0 | 0.0 | 0.0 | 0.00 | 0.02 | 0.00 | 86 | 1016.8 |
| 20260508051518 | 60 | 0 | 0.0 | 0.0 | 0.00 | 0.02 | 0.00 | 86 | 1016.8 |
| 20260508051017 | 60 | 0 | 0.0 | 0.0 | 0.00 | 0.02 | 0.00 | 86 | 1016.8 |
| 20260508050517 | 60 | 38 | 0.0 | 1.0 | 0.00 | 0.02 | 0.00 | 85 | 1016.8 |
| 20260508050017 | 60 | 0 | 0.0 | 0.0 | 0.00 | 0.02 | 0.00 | 85 | 1016.9 |
| 20260508045517 | 60 | 0 | 0.0 | 0.0 | 0.00 | 0.00 | 0.02 | 85 | 1016.9 |
| 20260508045017 | 61 | 0 | 0.0 | 0.0 | 0.00 | 0.00 | 0.02 | 85 | 1016.8 |
| 20260508044518 | 61 | 0 | 0.0 | 0.0 | 0.00 | 0.00 | 0.02 | 84 | 1016.8 |
| 20260508044017 | 61 | 0 | 0.0 | 0.0 | 0.00 | 0.00 | 0.02 | 84 | 1016.9 |
| 20260508043517 | 61 | 0 | 0.0 | 0.0 | 0.00 | 0.00 | 0.02 | 83 | 1016.8 |
| 20260508043016 | 61 | 0 | 0.0 | 0.0 | 0.00 | 0.00 | 0.02 | 83 | 1016.8 |
| 20260508042517 | 61 | 58 | 0.0 | 0.0 | 0.00 | 0.00 | 0.02 | 83 | 1017.0 |
| 20260508042017 | 61 | 30 | 0.0 | 2.0 | 0.00 | 0.00 | 0.02 | 83 | 1016.8 |
| 20260508041518 | 61 | 10 | 0.0 | 1.0 | 0.00 | 0.00 | 0.02 | 82 | 1016.9 |
| 20260508041017 | 62 | 0 | 0.0 | 0.0 | 0.00 | 0.00 | 0.02 | 82 | 1016.8 |
| 20260508040518 | 62 | 0 | 0.0 | 0.0 | 0.00 | 0.00 | 0.02 | 82 | 1016.6 |
| 20260508040017 | 62 | 0 | 0.0 | 0.0 | 0.00 | 0.00 | 0.02 | 81 | 1017.0 |
| 20260508035517 | 62 | 0 | 0.0 | 0.0 | 0.00 | 0.00 | 0.02 | 80 | 1016.8 |
| 20260508035018 | 62 | 0 | 0.0 | 0.0 | 0.00 | 0.00 | 0.02 | 80 | 1016.9 |
| 20260508034518 | 62 | 11 | 0.0 | 2.0 | 0.00 | 0.00 | 0.02 | 80 | 1016.8 |
| 20260508034018 | 63 | 85 | 0.0 | 1.0 | 0.00 | 0.00 | 0.02 | 80 | 1016.8 |
| 20260508033517 | 63 | 25 | 0.0 | 1.0 | 0.00 | 0.00 | 0.02 | 80 | 1016.8 |
| 20260508033017 | 63 | 11 | 0.0 | 1.0 | 0.00 | 0.00 | 0.02 | 79 | 1016.6 |
| 20260508032517 | 63 | 0 | 1.0 | 0.0 | 0.00 | 0.00 | 0.02 | 77 | 1016.6 |
| 20260508032016 | 63 | 10 | 0.0 | 2.0 | 0.00 | 0.00 | 0.02 | 77 | 1016.6 |
| 20260508031517 | 64 | 347 | 1.0 | 4.0 | 0.00 | 0.00 | 0.02 | 76 | 1016.8 |
| 20260508031017 | 64 | 301 | 0.0 | 3.0 | 0.00 | 0.00 | 0.02 | 75 | 1016.6 |
| 20260508030517 | 64 | 295 | 0.0 | 3.0 | 0.00 | 0.00 | 0.02 | 74 | 1016.4 |
| 20260508030017 | 64 | 294 | 1.0 | 3.0 | 0.00 | 0.00 | 0.02 | 74 | 1016.4 |
| 20260508025517 | 64 | 17 | 2.0 | 5.0 | 0.00 | 0.00 | 0.02 | 74 | 1016.4 |
| 20260508025017 | 64 | 328 | 4.0 | 5.0 | 0.00 | 0.00 | 0.02 | 73 | 1016.6 |
| 20260508024517 | 64 | 16 | 1.0 | 5.0 | 0.00 | 0.00 | 0.02 | 73 | 1016.4 |
| 20260508024017 | 64 | 14 | 1.0 | 4.0 | 0.00 | 0.00 | 0.02 | 72 | 1016.1 |
| 20260508023517 | 64 | 17 | 0.0 | 5.0 | 0.00 | 0.00 | 0.02 | 73 | 1016.1 |
| 20260508023017 | 64 | 337 | 0.0 | 7.0 | 0.00 | 0.00 | 0.02 | 73 | 1016.1 |
| 20260508022518 | 64 | 6 | 0.0 | 5.0 | 0.00 | 0.00 | 0.02 | 75 | 1016.4 |
| 20260508022017 | 64 | 340 | 3.0 | 3.0 | 0.00 | 0.00 | 0.02 | 74 | 1016.2 |
| 20260508021517 | 64 | 318 | 1.0 | 6.0 | 0.00 | 0.00 | 0.02 | 75 | 1015.9 |
| 20260508021017 | 64 | 343 | 2.0 | 5.0 | 0.00 | 0.00 | 0.02 | 76 | 1016.1 |
| 20260508020517 | 64 | 325 | 2.0 | 5.0 | 0.00 | 0.00 | 0.02 | 76 | 1016.1 |
| 20260508020017 | 64 | 337 | 0.0 | 4.0 | 0.00 | 0.00 | 0.02 | 76 | 1016.0 |
| 20260508015517 | 64 | 359 | 1.0 | 4.0 | 0.00 | 0.00 | 0.02 | 76 | 1015.9 |
| 20260508015017 | 64 | 10 | 0.0 | 4.0 | 0.00 | 0.00 | 0.02 | 76 | 1015.8 |
| 20260508014517 | 64 | 344 | 2.0 | 2.0 | 0.00 | 0.00 | 0.02 | 77 | 1016.0 |
| 20260508014017 | 64 | 8 | 0.0 | 3.0 | 0.00 | 0.00 | 0.02 | 77 | 1015.9 |
| 20260508013517 | 64 | 44 | 1.0 | 7.0 | 0.00 | 0.00 | 0.02 | 77 | 1015.9 |
| 20260508013017 | 64 | 38 | 0.0 | 3.0 | 0.00 | 0.00 | 0.02 | 79 | 1015.8 |
| 20260508012517 | 64 | 0 | 0.0 | 0.0 | 0.00 | 0.00 | 0.02 | 79 | 1015.8 |
| 20260508012017 | 64 | 0 | 0.0 | 0.0 | 0.00 | 0.00 | 0.02 | 79 | 1015.7 |
| 20260508011517 | 65 | 0 | 0.0 | 0.0 | 0.00 | 0.00 | 0.02 | 79 | 1015.8 |
| 20260508011017 | 65 | 0 | 0.0 | 0.0 | 0.00 | 0.00 | 0.02 | 78 | 1015.7 |
| 20260508010517 | 65 | 318 | 0.0 | 1.0 | 0.00 | 0.00 | 0.02 | 77 | 1015.6 |
| 20260508010017 | 66 | 356 | 0.0 | 2.0 | 0.00 | 0.00 | 0.02 | 77 | 1015.5 |
| 20260508005517 | 66 | 0 | 0.0 | 0.0 | 0.00 | 0.00 | 0.02 | 76 | 1015.5 |
| 20260508005017 | 66 | 0 | 0.0 | 0.0 | 0.00 | 0.00 | 0.02 | 75 | 1015.4 |
| 20260508004517 | 66 | 344 | 0.0 | 2.0 | 0.00 | 0.00 | 0.02 | 74 | 1015.3 |
| 20260508004017 | 67 | 0 | 0.0 | 0.0 | 0.00 | 0.00 | 0.02 | 73 | 1015.3 |
| 20260508003517 | 67 | 349 | 0.0 | 4.0 | 0.00 | 0.00 | 0.02 | 71 | 1015.4 |
| 20260508003018 | 67 | 343 | 1.0 | 4.0 | 0.00 | 0.00 | 0.02 | 70 | 1015.3 |
| 20260508002517 | 68 | 346 | 0.0 | 2.0 | 0.00 | 0.00 | 0.02 | 71 | 1015.4 |
| 20260508002017 | 68 | 56 | 1.0 | 3.0 | 0.00 | 0.00 | 0.02 | 69 | 1015.3 |
| 20260508001517 | 68 | 308 | 1.0 | 4.0 | 0.00 | 0.00 | 0.02 | 69 | 1015.4 |
| 20260508001017 | 69 | 316 | 0.0 | 4.0 | 0.00 | 0.00 | 0.02 | 67 | 1015.4 |
| 20260508000517 | 69 | 347 | 0.0 | 6.0 | 0.00 | 0.00 | 0.02 | 67 | 1015.2 |
| 20260508000017 | 69 | 350 | 3.0 | 3.0 | 0.00 | 0.00 | 0.02 | 69 | 1015.2 |
| 20260507235517 | 68 | 17 | 3.0 | 5.0 | 0.00 | 0.00 | 0.02 | 67 | 1015.1 |
| 20260507235017 | 69 | 359 | 1.0 | 6.0 | 0.00 | 0.00 | 0.02 | 66 | 1015.1 |
| 20260507234517 | 69 | 8 | 1.0 | 6.0 | 0.00 | 0.00 | 0.02 | 67 | 1014.9 |
| 20260507234017 | 69 | 18 | 2.0 | 5.0 | 0.00 | 0.00 | 0.02 | 67 | 1014.8 |
| 20260507233518 | 70 | 346 | 0.0 | 7.0 | 0.00 | 0.00 | 0.02 | 68 | 1014.9 |
| 20260507233017 | 70 | 340 | 3.0 | 7.0 | 0.00 | 0.00 | 0.02 | 67 | 1015.0 |
| 20260507232517 | 70 | 27 | 1.0 | 4.0 | 0.00 | 0.00 | 0.02 | 66 | 1014.8 |
| 20260507232017 | 70 | 326 | 1.0 | 8.0 | 0.00 | 0.00 | 0.02 | 65 | 1014.8 |
| 20260507231518 | 70 | 318 | 3.0 | 5.0 | 0.00 | 0.00 | 0.02 | 65 | 1014.7 |
| 20260507231017 | 71 | 328 | 0.0 | 6.0 | 0.00 | 0.00 | 0.02 | 66 | 1014.7 |
| 20260507230517 | 71 | 340 | 4.0 | 10.0 | 0.00 | 0.00 | 0.02 | 65 | 1014.7 |
| 20260507230017 | 72 | 323 | 3.0 | 4.0 | 0.00 | 0.00 | 0.02 | 66 | 1014.6 |
| 20260507225517 | 72 | 329 | 0.0 | 7.0 | 0.00 | 0.00 | 0.02 | 64 | 1014.5 |
| 20260507225017 | 73 | 32 | 3.0 | 6.0 | 0.00 | 0.00 | 0.02 | 64 | 1014.5 |
| 20260507224517 | 74 | 23 | 0.0 | 3.0 | 0.00 | 0.00 | 0.02 | 64 | 1014.4 |
| 20260507224016 | 74 | 10 | 2.0 | 4.0 | 0.00 | 0.00 | 0.02 | 62 | 1014.5 |
| 20260507223517 | 74 | 24 | 0.0 | 4.0 | 0.00 | 0.00 | 0.02 | 63 | 1014.4 |
| 20260507223018 | 73 | 78 | 1.0 | 2.0 | 0.00 | 0.00 | 0.02 | 63 | 1014.5 |
| 20260507222517 | 73 | 86 | 0.0 | 3.0 | 0.00 | 0.00 | 0.02 | 64 | 1014.4 |
| 20260507222017 | 73 | 330 | 0.0 | 4.0 | 0.00 | 0.00 | 0.02 | 63 | 1014.3 |
| 20260507221517 | 72 | 264 | 2.0 | 6.0 | 0.00 | 0.00 | 0.02 | 64 | 1014.4 |
| 20260507221017 | 72 | 193 | 2.0 | 6.0 | 0.00 | 0.00 | 0.02 | 63 | 1014.5 |
| 20260507220517 | 72 | 37 | 2.0 | 7.0 | 0.00 | 0.00 | 0.02 | 64 | 1014.4 |
| 20260507220017 | 72 | 17 | 4.0 | 7.0 | 0.00 | 0.00 | 0.02 | 62 | 1014.4 |
| 20260507215517 | 73 | 52 | 3.0 | 6.0 | 0.00 | 0.00 | 0.02 | 62 | 1014.3 |
| 20260507215017 | 73 | 318 | 1.0 | 4.0 | 0.00 | 0.00 | 0.02 | 63 | 1014.4 |
| 20260507214516 | 74 | 302 | 1.0 | 4.0 | 0.00 | 0.00 | 0.02 | 63 | 1014.3 |
| 20260507214017 | 74 | 59 | 2.0 | 3.0 | 0.00 | 0.00 | 0.02 | 63 | 1014.2 |
| 20260507213517 | 73 | 16 | 0.0 | 3.0 | 0.00 | 0.00 | 0.02 | 65 | 1014.3 |
| 20260507213017 | 73 | 347 | 1.0 | 3.0 | 0.00 | 0.00 | 0.02 | 65 | 1014.3 |
| 20260507212517 | 73 | 325 | 1.0 | 7.0 | 0.00 | 0.00 | 0.02 | 64 | 1014.1 |
| 20260507212017 | 73 | 1 | 2.0 | 10.0 | 0.00 | 0.00 | 0.02 | 63 | 1014.2 |
| 20260507211517 | 72 | 339 | 2.0 | 5.0 | 0.00 | 0.00 | 0.02 | 63 | 1014.2 |
| 20260507211017 | 73 | 8 | 0.0 | 7.0 | 0.00 | 0.00 | 0.02 | 65 | 1014.0 |
| 20260507210517 | 73 | 107 | 3.0 | 3.0 | 0.00 | 0.00 | 0.02 | 66 | 1014.0 |
| 20260507210017 | 73 | 30 | 0.0 | 7.0 | 0.00 | 0.00 | 0.02 | 66 | 1014.1 |
| 20260507205517 | 72 | 312 | 4.0 | 8.0 | 0.00 | 0.00 | 0.02 | 67 | 1014.1 |
| 20260507205017 | 72 | 268 | 2.0 | 10.0 | 0.00 | 0.00 | 0.02 | 63 | 1014.2 |
| 20260507204517 | 72 | 326 | 0.0 | 6.0 | 0.00 | 0.00 | 0.02 | 64 | 1014.3 |
| 20260507204017 | 73 | 285 | 0.0 | 4.0 | 0.00 | 0.00 | 0.02 | 65 | 1014.5 |
| 20260507203517 | 73 | 318 | 3.0 | 5.0 | 0.00 | 0.00 | 0.02 | 65 | 1014.4 |
| 20260507203017 | 73 | 288 | 3.0 | 5.0 | 0.00 | 0.00 | 0.02 | 65 | 1014.4 |
| 20260507202517 | 73 | 241 | 2.0 | 5.0 | 0.00 | 0.00 | 0.02 | 66 | 1014.4 |
| 20260507202017 | 72 | 230 | 2.0 | 5.0 | 0.00 | 0.00 | 0.02 | 68 | 1014.2 |
| 20260507201517 | 72 | 227 | 1.0 | 5.0 | 0.00 | 0.00 | 0.02 | 70 | 1014.4 |
| 20260507201017 | 72 | 64 | 3.0 | 6.0 | 0.00 | 0.00 | 0.02 | 69 | 1014.4 |
| 20260507200517 | 71 | 16 | 2.0 | 5.0 | 0.00 | 0.00 | 0.02 | 70 | 1014.6 |
| 20260507200017 | 71 | 264 | 2.0 | 5.0 | 0.00 | 0.00 | 0.02 | 72 | 1014.6 |
| 20260507195517 | 71 | 265 | 3.0 | 4.0 | 0.00 | 0.00 | 0.02 | 72 | 1014.4 |
| 20260507195017 | 70 | 210 | 1.0 | 5.0 | 0.00 | 0.00 | 0.02 | 70 | 1014.5 |
| 20260507194517 | 70 | 339 | 3.0 | 6.0 | 0.00 | 0.00 | 0.02 | 74 | 1014.7 |
| 20260507194017 | 70 | 336 | 3.0 | 4.0 | 0.00 | 0.00 | 0.02 | 71 | 1014.7 |
| 20260507193517 | 69 | 148 | 1.0 | 4.0 | 0.00 | 0.00 | 0.02 | 74 | 1014.7 |
| 20260507193018 | 69 | 360 | 1.0 | 7.0 | 0.00 | 0.00 | 0.02 | 75 | 1014.6 |
| 20260507192517 | 69 | 337 | 3.0 | 6.0 | 0.00 | 0.00 | 0.02 | 75 | 1014.6 |
| 20260507192018 | 68 | 27 | 5.0 | 4.0 | 0.00 | 0.00 | 0.02 | 76 | 1014.8 |
| 20260507191517 | 68 | 93 | 0.0 | 3.0 | 0.00 | 0.00 | 0.02 | 78 | 1014.9 |
| 20260507191017 | 68 | 97 | 3.0 | 4.0 | 0.00 | 0.00 | 0.02 | 76 | 1014.8 |
| 20260507190517 | 68 | 104 | 0.0 | 6.0 | 0.00 | 0.00 | 0.02 | 75 | 1014.7 |
| 20260507190018 | 68 | 325 | 3.0 | 7.0 | 0.00 | 0.00 | 0.02 | 76 | 1014.8 |
| 20260507185517 | 68 | 353 | 6.0 | 6.0 | 0.00 | 0.00 | 0.02 | 77 | 1014.8 |
| 20260507185017 | 67 | 13 | 4.0 | 7.0 | 0.00 | 0.00 | 0.02 | 78 | 1014.7 |
| 20260507184517 | 66 | 333 | 2.0 | 9.0 | 0.00 | 0.00 | 0.02 | 78 | 1015.0 |
| 20260507184017 | 66 | 340 | 4.0 | 8.0 | 0.00 | 0.00 | 0.02 | 79 | 1014.9 |
| 20260507183517 | 66 | 271 | 1.0 | 5.0 | 0.00 | 0.00 | 0.02 | 80 | 1015.2 |
| 20260507183017 | 66 | 3 | 1.0 | 8.0 | 0.00 | 0.00 | 0.02 | 80 | 1015.2 |
| 20260507182517 | 66 | 320 | 3.0 | 8.0 | 0.00 | 0.00 | 0.02 | 81 | 1015.3 |
| 20260507182017 | 65 | 308 | 3.0 | 9.0 | 0.00 | 0.00 | 0.02 | 82 | 1015.5 |
| 20260507181517 | 65 | 360 | 0.0 | 6.0 | 0.00 | 0.00 | 0.02 | 83 | 1015.5 |
| 20260507181017 | 65 | 359 | 4.0 | 10.0 | 0.00 | 0.00 | 0.02 | 84 | 1015.5 |
| 20260507180517 | 65 | 278 | 2.0 | 8.0 | 0.00 | 0.00 | 0.02 | 85 | 1015.6 |
| 20260507180017 | 65 | 4 | 2.0 | 5.0 | 0.00 | 0.00 | 0.02 | 86 | 1015.4 |
| 20260507175517 | 64 | 4 | 2.0 | 7.0 | 0.00 | 0.00 | 0.02 | 86 | 1015.5 |
| 20260507175017 | 64 | 350 | 6.0 | 8.0 | 0.00 | 0.00 | 0.02 | 86 | 1015.7 |
| 20260507174516 | 64 | 34 | 7.0 | 3.0 | 0.00 | 0.00 | 0.02 | 89 | 1015.7 |
| 20260507174017 | 64 | 289 | 2.0 | 2.0 | 0.00 | 0.00 | 0.02 | 89 | 1015.7 |
| 20260507173517 | 63 | 322 | 2.0 | 4.0 | 0.00 | 0.00 | 0.02 | 90 | 1015.8 |
| 20260507173017 | 63 | 247 | 0.0 | 5.0 | 0.00 | 0.00 | 0.02 | 91 | 1015.9 |
| 20260507172517 | 63 | 337 | 2.0 | 6.0 | 0.00 | 0.00 | 0.02 | 92 | 1015.9 |
| 20260507172017 | 63 | 342 | 1.0 | 10.0 | 0.00 | 0.00 | 0.02 | 93 | 1015.9 |
| 20260507171517 | 62 | 312 | 0.0 | 5.0 | 0.00 | 0.00 | 0.02 | 94 | 1016.0 |
| 20260507171017 | 62 | 239 | 1.0 | 5.0 | 0.00 | 0.00 | 0.02 | 95 | 1015.9 |
| 20260507170517 | 62 | 47 | 0.0 | 3.0 | 0.00 | 0.00 | 0.02 | 95 | 1016.0 |
| 20260507170017 | 61 | 7 | 0.0 | 6.0 | 0.00 | 0.00 | 0.02 | 95 | 1016.1 |
| 20260507165517 | 62 | 342 | 5.0 | 5.0 | 0.00 | 0.00 | 0.02 | 95 | 1016.2 |
| 20260507165017 | 61 | 312 | 1.0 | 5.0 | 0.00 | 0.00 | 0.02 | 95 | 1016.3 |
| 20260507164517 | 61 | 343 | 1.0 | 4.0 | 0.00 | 0.00 | 0.02 | 95 | 1016.1 |
| 20260507164017 | 61 | 349 | 4.0 | 6.0 | 0.00 | 0.00 | 0.02 | 95 | 1016.0 |
| 20260507163517 | 61 | 312 | 1.0 | 4.0 | 0.00 | 0.00 | 0.02 | 96 | 1015.9 |
| 20260507163017 | 61 | 335 | 2.0 | 5.0 | 0.00 | 0.00 | 0.02 | 96 | 1015.8 |
| 20260507162517 | 61 | 318 | 2.0 | 6.0 | 0.00 | 0.00 | 0.02 | 96 | 1015.8 |
| 20260507162017 | 61 | 281 | 4.0 | 4.0 | 0.00 | 0.00 | 0.02 | 96 | 1015.7 |
| 20260507161517 | 61 | 360 | 1.0 | 7.0 | 0.00 | 0.00 | 0.02 | 96 | 1015.7 |
| 20260507161017 | 61 | 45 | 6.0 | 5.0 | 0.00 | 0.00 | 0.02 | 96 | 1015.7 |
| 20260507160517 | 61 | 339 | 5.0 | 4.0 | 0.00 | 0.00 | 0.02 | 96 | 1015.7 |
| 20260507160017 | 61 | 0 | 0.0 | 0.0 | 0.00 | 0.00 | 0.02 | 96 | 1015.5 |
| 20260507155517 | 61 | 346 | 0.0 | 6.0 | 0.00 | 0.00 | 0.02 | 96 | 1015.3 |
| 20260507155017 | 61 | 306 | 0.0 | 3.0 | 0.00 | 0.00 | 0.02 | 97 | 1015.6 |
| 20260507154517 | 61 | 296 | 0.0 | 6.0 | 0.00 | 0.00 | 0.02 | 97 | 1015.4 |
| 20260507154017 | 61 | 339 | 1.0 | 6.0 | 0.00 | 0.00 | 0.02 | 97 | 1015.4 |
| 20260507153517 | 62 | 1 | 3.0 | 6.0 | 0.00 | 0.00 | 0.02 | 97 | 1015.3 |
| 20260507153017 | 62 | 298 | 0.0 | 8.0 | 0.00 | 0.00 | 0.02 | 97 | 1015.3 |
| 20260507152517 | 62 | 186 | 1.0 | 4.0 | 0.00 | 0.00 | 0.02 | 97 | 1015.3 |
| 20260507152017 | 62 | 347 | 0.0 | 8.0 | 0.00 | 0.00 | 0.02 | 97 | 1015.1 |
| 20260507151517 | 62 | 62 | 4.0 | 7.0 | 0.00 | 0.00 | 0.02 | 97 | 1015.1 |
| 20260507151017 | 62 | 356 | 3.0 | 9.0 | 0.00 | 0.00 | 0.02 | 97 | 1015.2 |
| 20260507150517 | 62 | 56 | 2.0 | 5.0 | 0.00 | 0.00 | 0.02 | 97 | 1015.2 |
| 20260507150017 | 62 | 330 | 1.0 | 4.0 | 0.00 | 0.00 | 0.02 | 97 | 1015.1 |
| 20260507145517 | 62 | 1 | 0.0 | 5.0 | 0.00 | 0.00 | 0.02 | 97 | 1014.9 |
| 20260507145017 | 62 | 113 | 3.0 | 2.0 | 0.00 | 0.00 | 0.02 | 97 | 1014.9 |
| 20260507144518 | 62 | 275 | 1.0 | 5.0 | 0.00 | 0.00 | 0.02 | 97 | 1014.8 |
| 20260507144017 | 61 | 346 | 3.0 | 5.0 | 0.00 | 0.00 | 0.02 | 97 | 1014.9 |
| 20260507143517 | 62 | 352 | 3.0 | 5.0 | 0.00 | 0.00 | 0.02 | 97 | 1014.9 |
| 20260507143017 | 62 | 315 | 0.0 | 3.0 | 0.00 | 0.00 | 0.02 | 98 | 1014.9 |
| 20260507142517 | 62 | 344 | 0.0 | 4.0 | 0.00 | 0.00 | 0.02 | 98 | 1015.0 |
| 20260507142017 | 61 | 360 | 0.0 | 4.0 | 0.00 | 0.00 | 0.02 | 98 | 1014.9 |
| 20260507141517 | 62 | 232 | 0.0 | 1.0 | 0.00 | 0.00 | 0.02 | 98 | 1014.8 |
| 20260507141017 | 62 | 347 | 1.0 | 5.0 | 0.00 | 0.00 | 0.02 | 98 | 1014.8 |
| 20260507140517 | 61 | 270 | 0.0 | 4.0 | 0.00 | 0.00 | 0.02 | 98 | 1014.7 |
| 20260507140018 | 61 | 25 | 0.0 | 7.0 | 0.00 | 0.00 | 0.02 | 98 | 1014.7 |
| 20260507135517 | 61 | 34 | 2.0 | 7.0 | 0.00 | 0.00 | 0.02 | 98 | 1014.5 |
| 20260507135017 | 61 | 353 | 0.0 | 7.0 | 0.00 | 0.00 | 0.02 | 98 | 1014.5 |
| 20260507134517 | 61 | 1 | 0.0 | 3.0 | 0.00 | 0.00 | 0.02 | 98 | 1014.5 |
| 20260507134017 | 61 | 0 | 1.0 | 0.0 | 0.00 | 0.00 | 0.02 | 98 | 1014.6 |
| 20260507133517 | 61 | 0 | 0.0 | 0.0 | 0.00 | 0.00 | 0.02 | 98 | 1014.6 |
| 20260507133017 | 61 | 0 | 0.0 | 0.0 | 0.00 | 0.00 | 0.02 | 98 | 1014.5 |
| 20260507132517 | 61 | 0 | 0.0 | 0.0 | 0.00 | 0.00 | 0.02 | 98 | 1014.4 |
| 20260507132017 | 61 | 23 | 0.0 | 7.0 | 0.00 | 0.00 | 0.02 | 98 | 1014.2 |
| 20260507131517 | 61 | 17 | 4.0 | 4.0 | 0.00 | 0.00 | 0.02 | 98 | 1014.1 |
| 20260507131017 | 61 | 34 | 0.0 | 5.0 | 0.00 | 0.00 | 0.02 | 98 | 1014.2 |
| 20260507130517 | 61 | 114 | 0.0 | 5.0 | 0.00 | 0.00 | 0.02 | 98 | 1014.2 |
| 20260507130017 | 61 | 90 | 3.0 | 6.0 | 0.00 | 0.00 | 0.02 | 98 | 1013.9 |
| 20260507125517 | 61 | 85 | 0.0 | 7.0 | 0.00 | 0.00 | 0.02 | 98 | 1013.8 |
| 20260507125017 | 61 | 0 | 0.0 | 0.0 | 0.00 | 0.00 | 0.02 | 98 | 1013.9 |
| 20260507124517 | 61 | 0 | 0.0 | 0.0 | 0.00 | 0.00 | 0.02 | 98 | 1013.9 |
| 20260507124017 | 61 | 102 | 0.0 | 1.0 | 0.00 | 0.00 | 0.02 | 98 | 1013.8 |
| 20260507123517 | 61 | 360 | 0.0 | 4.0 | 0.00 | 0.00 | 0.02 | 98 | 1013.8 |
| 20260507123018 | 61 | 27 | 0.0 | 9.0 | 0.00 | 0.00 | 0.02 | 98 | 1013.9 |
| 20260507122517 | 61 | 360 | 0.0 | 7.0 | 0.00 | 0.00 | 0.02 | 98 | 1013.6 |
| 20260507122017 | 61 | 359 | 0.0 | 7.0 | 0.00 | 0.00 | 0.02 | 98 | 1013.5 |
| 20260507121517 | 61 | 280 | 0.0 | 3.0 | 0.00 | 0.00 | 0.02 | 98 | 1013.4 |
| 20260507121017 | 61 | 344 | 0.0 | 5.0 | 0.00 | 0.00 | 0.02 | 98 | 1013.2 |
| 20260507120517 | 61 | 326 | 0.0 | 0.0 | 0.00 | 0.00 | 0.02 | 98 | 1012.9 |
| 20260507120017 | 61 | 0 | 0.0 | 0.0 | 0.00 | 0.00 | 0.02 | 98 | 1012.9 |
| 20260507115518 | 61 | 336 | 0.0 | 3.0 | 0.00 | 0.00 | 0.02 | 98 | 1012.8 |
| 20260507115017 | 60 | 353 | 0.0 | 4.0 | 0.00 | 0.00 | 0.01 | 98 | 1012.9 |
| 20260507114517 | 61 | 102 | 0.0 | 1.0 | 0.00 | 0.00 | 0.01 | 98 | 1012.9 |
| 20260507114017 | 61 | 113 | 0.0 | 2.0 | 0.00 | 0.00 | 0.01 | 98 | 1012.9 |
| 20260507113517 | 61 | 349 | 0.0 | 8.0 | 0.00 | 0.00 | 0.01 | 98 | 1012.8 |
| 20260507113017 | 60 | 360 | 1.0 | 8.0 | 0.00 | 0.00 | 0.01 | 98 | 1012.7 |
| 20260507112517 | 61 | 23 | 5.0 | 5.0 | 0.00 | 0.00 | 0.01 | 98 | 1012.7 |
| 20260507112017 | 61 | 342 | 0.0 | 4.0 | 0.00 | 0.00 | 0.01 | 98 | 1012.7 |
| 20260507111518 | 60 | 18 | 3.0 | 7.0 | 0.00 | 0.00 | 0.01 | 98 | 1012.6 |
| 20260507111017 | 60 | 31 | 0.0 | 10.0 | 0.00 | 0.00 | 0.01 | 98 | 1012.6 |
| 20260507110517 | 60 | 342 | 3.0 | 10.0 | 0.00 | 0.00 | 0.01 | 97 | 1012.6 |
| 20260507110017 | 61 | 309 | 0.0 | 9.0 | 0.00 | 0.00 | 0.01 | 97 | 1012.6 |
| 20260507105517 | 61 | 337 | 7.0 | 15.0 | 0.00 | 0.00 | 0.01 | 97 | 1012.8 |
| 20260507105018 | 61 | 291 | 9.0 | 10.0 | 0.00 | 0.00 | 0.01 | 97 | 1012.9 |
| 20260507104518 | 61 | 38 | 3.0 | 11.0 | 0.00 | 0.00 | 0.01 | 97 | 1012.3 |
| 20260507104017 | 62 | 346 | 0.0 | 8.0 | 0.00 | 0.00 | 0.01 | 97 | 1012.1 |
| 20260507103517 | 62 | 37 | 3.0 | 6.0 | 0.00 | 0.00 | 0.01 | 97 | 1011.8 |
| 20260507103017 | 62 | 350 | 0.0 | 4.0 | 0.00 | 0.00 | 0.01 | 97 | 1011.8 |
| 20260507102517 | 62 | 16 | 1.0 | 8.0 | 0.00 | 0.00 | 0.01 | 97 | 1011.7 |
| 20260507102017 | 63 | 11 | 7.0 | 10.0 | 0.00 | 0.00 | 0.01 | 97 | 1011.6 |
| 20260507101518 | 63 | 329 | 3.0 | 11.0 | 0.00 | 0.00 | 0.01 | 97 | 1011.7 |
| 20260507101017 | 64 | 353 | 3.0 | 9.0 | 0.00 | 0.00 | 0.01 | 97 | 1011.6 |
| 20260507100517 | 64 | 323 | 3.0 | 11.0 | 0.00 | 0.00 | 0.01 | 97 | 1011.2 |
| 20260507100018 | 65 | 291 | 3.0 | 8.0 | 0.00 | 0.00 | 0.01 | 97 | 1011.2 |
| 20260507095517 | 65 | 329 | 4.0 | 5.0 | 0.00 | 0.00 | 0.01 | 98 | 1011.1 |
| 20260507095017 | 65 | 0 | 0.0 | 0.0 | 0.00 | 0.00 | 0.01 | 98 | 1011.0 |
| 20260507094518 | 65 | 323 | 0.0 | 5.0 | 0.00 | 0.00 | 0.01 | 98 | 1011.0 |
| 20260507094017 | 65 | 16 | 0.0 | 5.0 | 0.00 | 0.00 | 0.01 | 98 | 1011.1 |
| 20260507093518 | 65 | 18 | 1.0 | 1.0 | 0.00 | 0.00 | 0.01 | 98 | 1011.3 |
| 20260507093017 | 65 | 330 | 0.0 | 9.0 | 0.00 | 0.00 | 0.01 | 98 | 1011.3 |
| 20260507092517 | 66 | 11 | 0.0 | 1.0 | 0.00 | 0.00 | 0.01 | 98 | 1011.2 |
| 20260507092017 | 66 | 0 | 0.0 | 0.0 | 0.00 | 0.00 | 0.01 | 98 | 1011.2 |
| 20260507091517 | 66 | 18 | 0.0 | 1.0 | 0.00 | 0.00 | 0.01 | 98 | 1011.2 |
| 20260507091017 | 66 | 86 | 0.0 | 3.0 | 0.00 | 0.00 | 0.01 | 98 | 1011.2 |
| 20260507090517 | 66 | 347 | 0.0 | 2.0 | 0.00 | 0.00 | 0.01 | 97 | 1011.2 |
| 20260507090017 | 66 | 0 | 0.0 | 0.0 | 0.00 | 0.00 | 0.01 | 97 | 1011.1 |
| 20260507085518 | 65 | 0 | 0.0 | 0.0 | 0.00 | 0.00 | 0.01 | 97 | 1011.2 |
| 20260507085017 | 66 | 30 | 0.0 | 2.0 | 0.00 | 0.00 | 0.01 | 97 | 1011.0 |
| 20260507084517 | 66 | 82 | 0.0 | 2.0 | 0.00 | 0.00 | 0.01 | 97 | 1011.0 |
| 20260507084017 | 66 | 96 | 2.0 | 6.0 | 0.00 | 0.00 | 0.00 | 97 | 1011.2 |
| 20260507083517 | 66 | 85 | 0.0 | 5.0 | 0.00 | 0.00 | 0.00 | 97 | 1010.8 |
| 20260507083018 | 66 | 0 | 0.0 | 0.0 | 0.00 | 0.00 | 0.00 | 97 | 1010.8 |
| 20260507082517 | 66 | 0 | 0.0 | 0.0 | 0.00 | 0.00 | 0.00 | 97 | 1010.6 |
| 20260507082017 | 66 | 90 | 0.0 | 7.0 | 0.00 | 0.00 | 0.00 | 97 | 1010.7 |
| 20260507081517 | 66 | 322 | 0.0 | 2.0 | 0.00 | 0.00 | 0.00 | 97 | 1010.6 |
| 20260507081017 | 66 | 20 | 0.0 | 8.0 | 0.00 | 0.00 | 0.00 | 97 | 1010.9 |